Volver al catálogo

THORAD AGENA D DEB

ActivoPO
NORAD 19667·DEBRIS·🇺🇸 United States

Lanzado Apr 8, 1970 desde Vandenberg Space Force Base

Loading…

Próximos Pases (próximas 24 horas)

TLE

ActualizadoSource: Space-Track

Época: Sep 14, 2026, 16:14 UTC

1 19667U 70025QC  26257.67685185  .00000108  00000-0  46273-3 0  9995
2 19667  99.7367 153.2768 0338005 293.9352  89.6972 12.86347103793360

Sigue THORAD AGENA D DEB en tiempo real con AllMySat

Download on the App Store